Tracking 30995 objects as of 5-Jul-2025
HD Live streaming from Space Station
objects crossing your sky now

STARLINK-32686

Track STARLINK-32686 now!
10-day predictions
STARLINK-32686 is classified as:


NORAD ID: 62192
Int'l Code: 2024-229A
Perigee: 488.9 km
Apogee: 491.4 km
Inclination: 43.0 °
Period: 94.3 minutes
Semi major axis: 6861 km
RCS: Unknown
Launch date: December 4, 2024
Source: United States (US)
Launch site: AIR FORCE EASTERN TEST RANGE (AFETR)
Your satellite tracking list
Your tracking list is empty




NASA's NSSDC Master Catalog

Two Line Element Set (TLE):
1 62192U 24229A   25185.81171226  .00015437  00000-0  56903-3 0  9994
2 62192  43.0002 226.9710 0001795 269.0600  91.0046 15.27595834 32692
Source of the keplerian elements: AFSPC